TimeEST,TemperatureF,Dew PointF,Humidity,Sea Level PressureIn,VisibilityMPH,Wind Direction,Wind SpeedMPH,Gust SpeedMPH,PrecipitationIn,Events,Conditions,WindDirDegrees,DateUTC
12:52 AM,48.0,46.9,96,30.11,0.2,ENE,9.2,-,0.00,,Light Drizzle,70,2011-11-22 05:52:00
1:52 AM,48.0,46.9,96,30.11,0.2,NE,9.2,-,0.00,Fog,Light Drizzle,50,2011-11-22 06:52:00
2:52 AM,48.0,46.9,96,30.10,0.2,ENE,8.1,-,0.00,Fog,Light Drizzle,60,2011-11-22 07:52:00
3:06 AM,48.2,46.4,93,30.08,0.2,ENE,11.5,-,0.00,Fog,Light Drizzle,60,2011-11-22 08:06:00
3:23 AM,48.2,48.2,100,30.10,0.2,North,8.1,-,0.00,Fog-Rain,Light Rain,350,2011-11-22 08:23:00
3:52 AM,48.0,46.9,96,30.06,0.2,NE,10.4,-,0.02,Fog-Rain,Light Rain,40,2011-11-22 08:52:00
4:52 AM,48.0,46.9,96,30.06,0.2,ENE,9.2,-,0.00,Fog-Rain,Light Rain,60,2011-11-22 09:52:00
5:29 AM,48.2,46.4,93,30.03,0.2,East,13.8,-,0.00,Fog,Fog,80,2011-11-22 10:29:00
5:52 AM,48.0,46.9,96,30.03,0.2,ENE,6.9,-,0.00,,Overcast,60,2011-11-22 10:52:00
6:28 AM,48.2,46.4,93,30.02,0.2,ENE,11.5,-,0.00,Rain-Thunderstorm,Light Thunderstorms and Rain,70,2011-11-22 11:28:00
6:52 AM,48.0,46.9,96,30.02,0.5,East,6.9,-,0.05,Rain,Rain,80,2011-11-22 11:52:00
7:09 AM,48.2,46.4,93,30.02,2.0,East,8.1,-,0.07,Rain,Rain,100,2011-11-22 12:09:00
7:28 AM,48.2,48.2,100,30.01,2.0,East,6.9,-,0.17,Rain,Rain,90,2011-11-22 12:28:00
7:48 AM,48.2,48.2,100,30.00,2.0,East,6.9,-,N/A,Rain,Light Rain,100,2011-11-22 12:48:00
7:52 AM,48.9,48.0,97,30.00,2.0,East,8.1,-,0.23,Rain,Light Rain,100,2011-11-22 12:52:00
8:16 AM,50.0,48.2,94,30.00,2.0,Calm,Calm,-,0.02,Rain,Light Rain,0,2011-11-22 13:16:00
8:23 AM,50.0,48.2,94,29.99,1.0,East,6.9,-,0.03,Rain,Light Rain,80,2011-11-22 13:23:00
8:52 AM,50.0,48.9,96,29.97,1.0,East,9.2,-,0.05,Rain,Light Rain,90,2011-11-22 13:52:00
9:11 AM,50.0,50.0,100,29.96,0.5,East,6.9,-,0.01,Rain,Light Rain,90,2011-11-22 14:11:00
9:52 AM,51.1,51.1,100,29.96,0.5,ESE,4.6,-,0.02,Rain,Light Rain,120,2011-11-22 14:52:00
10:55 AM,53.6,53.6,100,29.91,1.2,ESE,8.1,-,0.00,Rain,Light Rain,110,2011-11-22 15:55:00
11:36 AM,55.4,53.6,94,29.87,1.2,ESE,9.2,-,0.20,Rain,Light Rain,110,2011-11-22 16:36:00
11:52 AM,55.0,54.0,96,29.86,1.2,ESE,5.8,-,0.26,Rain,Heavy Rain,120,2011-11-22 16:52:00
12:11 PM,55.4,53.6,94,29.84,1.2,SE,5.8,-,0.03,,Overcast,130,2011-11-22 17:11:00
12:43 PM,55.4,55.4,100,29.80,1.2,ESE,11.5,-,0.03,,Overcast,120,2011-11-22 17:43:00
12:52 PM,57.0,55.9,96,29.78,0.8,SE,8.1,-,0.03,,Overcast,140,2011-11-22 17:52:00
1:11 PM,57.2,57.2,100,29.78,7.0,SE,13.8,-,N/A,,Overcast,140,2011-11-22 18:11:00
1:52 PM,61.0,59.0,93,29.74,7.0,South,11.5,-,N/A,,Overcast,170,2011-11-22 18:52:00
2:52 PM,64.0,59.0,84,29.72,10.0,South,9.2,18.4,0.00,,Overcast,190,2011-11-22 19:52:00
3:52 PM,64.0,57.9,80,29.70,10.0,SSW,12.7,27.6,0.01,,Overcast,200,2011-11-22 20:52:00
4:52 PM,64.4,57.2,77,29.70,10.0,South,12.7,25.3,N/A,,Overcast,190,2011-11-22 21:52:00
5:52 PM,63.0,57.0,81,29.67,10.0,SSW,13.8,25.3,N/A,,Overcast,200,2011-11-22 22:52:00
6:30 PM,62.6,57.2,82,29.69,10.0,SSW,15.0,23.0,N/A,,Overcast,210,2011-11-22 23:30:00
6:52 PM,63.0,57.0,81,29.68,10.0,SSW,12.7,21.9,N/A,,Overcast,210,2011-11-22 23:52:00
7:20 PM,62.6,57.2,82,29.68,10.0,SSW,19.6,27.6,N/A,,Overcast,200,2011-11-23 00:20:00
7:44 PM,62.6,57.2,82,29.69,9.0,SW,16.1,24.2,0.00,Rain,Light Rain,220,2011-11-23 00:44:00
7:52 PM,62.6,57.2,82,29.69,9.0,SW,16.1,24.2,N/A,Rain,Light Rain,220,2011-11-23 00:52:00
8:52 PM,60.1,54.0,80,29.71,10.0,WSW,18.4,27.6,0.00,,Overcast,250,2011-11-23 01:52:00
9:02 PM,59.0,53.6,82,29.73,10.0,WSW,15.0,24.2,N/A,,Overcast,250,2011-11-23 02:02:00
9:19 PM,57.2,51.8,82,29.74,10.0,West,11.5,24.2,N/A,,Overcast,260,2011-11-23 02:19:00
9:52 PM,55.9,51.1,84,29.75,10.0,West,27.6,34.5,N/A,,Overcast,280,2011-11-23 02:52:00
10:15 PM,53.6,50.0,88,29.77,9.0,West,18.4,29.9,0.00,,Light Drizzle,270,2011-11-23 03:15:00
10:26 PM,53.6,50.0,88,29.78,8.0,West,17.3,-,0.00,,Light Drizzle,270,2011-11-23 03:26:00
10:52 PM,51.1,48.0,89,29.79,8.0,WNW,16.1,27.6,0.00,,Light Drizzle,290,2011-11-23 03:52:00
11:52 PM,46.9,43.0,86,29.83,10.0,West,19.6,26.5,0.00,,Light Drizzle,280,2011-11-23 04:52:00